Back to catalog

DELTA 1 DEB

AliveUNKNOWN
NORAD 12536·DEBRIS·🇺🇸 United States

Launched Jul 29, 1976 from Vandenberg Space Force Base

Loading…

Next Passes (next 24 hours)

TLE

FreshSource: Space-Track

Epoch: Sep 14, 2026, 10:49 UTC

1 12536U 76077DR  26257.45071854 -.00002908  00000-0 -31653-1 0  9990
2 12536 101.7686 337.3362 0517239  64.3169 359.5333 11.80127813 64408

Track DELTA 1 DEB in real time with AllMySat

Download on the App Store